Simultaneous Nadir Overpasses (SNOs) Predictions

Prediction of SNOs between METOP-A and NOAA-19 Satellite Orbit:

Table of predicted SNOs for the next 14.0 days since TLE Epoch: 6/13/2014
Index Date (METOP-A) Time (METOP-A) Lat,Lon (METOP-A) SZA (METOP-A ) Date (NOAA-19) Time (NOAA-19) Lat,Lon (NOAA-19) SZA (NOAA-19 ) Distance(km) Time Diff (sec)
1 06/18/2014 13:14:34 74.23, -23.55 50.81 06/18/2014 13:13:21 74.28, -24.24 50.89 21.29 73
2 06/18/2014 14:05:18 -74.11, 143.47 129.30 06/18/2014 14:04:15 -74.11, 143.45 129.29 0.62 63
3 06/18/2014 14:55:59 74.07, -49.31 50.66 06/18/2014 14:55:21 74.10, -49.30 50.70 3.72 38
4 06/18/2014 15:46:40 -74.09, 118.09 129.32 06/18/2014 15:46:18 -74.08, 118.01 129.32 2.76 22
5 06/18/2014 16:37:21 74.05, -74.68 50.65 06/18/2014 16:37:24 74.07, -74.74 50.67 2.86 3
6 06/18/2014 17:28:03 -74.03, 92.59 129.38 06/18/2014 17:28:21 -74.05, 92.57 129.36 2.64 18
7 06/18/2014 18:18:43 74.04,-100.06 50.63 06/18/2014 18:19:27 74.04,-100.18 50.64 3.66 44
8 06/18/2014 19:09:25 -74.01, 67.21 129.39 06/18/2014 19:10:24 -74.02, 67.13 129.39 2.59 59
9 06/18/2014 20:00:13 73.62,-126.40 50.25 06/18/2014 20:01:23 73.67,-124.77 50.24 51.18 70




NCC Satellite Simultaneous Nadir Overpasses (SNOs) Prediction Service
